Regional Weather Roundup
Issued by NWS Newport/Morehead, NC

Current Version | Previous Version | Graphics & Text | Print | Product List | Glossary Off
Versions: 1 2 3 4 5 6 7 8 9 10 11 12 13 14 15 16 17 18 19 20 21 22 23 24 25 26 27 28 29 30 31 32 33 34 35 36 37 38 39 40 41 42 43 44 45 46 47 48 49 50

000
ASUS42 KMHX 292122
RWRMHX
WEATHER ROUNDUP FOR EASTERN NORTH CAROLINA
NATIONAL WEATHER SERVICE NEWPORT/MOREHEAD CITY NC
500 PM EDT FRI AUG 29 2014

NOTE: "FAIR" INDICATES FEW OR NO CLOUDS BELOW 12,000 FEET
WITH NO SIGNIFICANT WEATHER AND/OR OBSTRUCTIONS TO VISIBILITY

NCZ015>017-031-032-045>047-102-103-292200-
NORTH COAST

CITY           SKY/WX    TMP DP  RH WIND       PRES   REMARKS
EDENTON        MOSUNNY   79  67  65 SE10      30.14R
ELIZABETH CITY CLOUDY    79  65  62 E10       30.14R
KITTY HAWK     CLOUDY    77  66  68 E7        30.13R
MANTEO         CLOUDY    77  65  65 NE10      30.14R

$$

NCZ045>047-081-094-103-104-292200-
CENTRAL COAST

CITY           SKY/WX    TMP DP  RH WIND       PRES   REMARKS
FRISCO         CLOUDY    80  75  84 E12       30.10S
SWANQUARTER      N/A     82 N/A N/A E10G16    30.09S

$$

NCZ095-097-098-100-101-292200-
SOUTHERN COAST

CITY           SKY/WX    TMP DP  RH WIND       PRES   REMARKS
BEAUFORT       MOSUNNY   85  67  54 S5        30.10R
CEDAR ISLAND     N/A     81 N/A N/A NE12G20   30.15S
JACKSONVILLE   MOSUNNY   87  71  58 SE10      30.08R
NEWPORT        NOT AVBL
PINEY ISLAND   PTCLDY    82  75  79 NE14      30.11R
WILMINGTON     SUNNY     87  69  54 SE8       30.08S


$$

NCZ011>013-027>030-043-044-078>080-089-090>093-098-292200-
COASTAL PLAIN

CITY           SKY/WX    TMP DP  RH WIND       PRES   REMARKS
AHOSKIE        MOSUNNY   79  69  70 SE3       30.13S
CLINTON        MOSUNNY   90  73  56 CALM      30.08R
ELIZABETHTOWN  MOSUNNY   91  65  42 CALM      30.07S
GOLDSBORO      MOSUNNY   87  80  79 NE8       30.08R HX 101
GREENVILLE     PTSUNNY   81  72  74 NE10      30.12S
HAVELOCK       PTSUNNY   82  74  76 NE15      30.11R
KENANSVILLE    SUNNY     88  69  52 CALM      30.09R
KINSTON        NOT AVBL
NEW BERN       SUNNY     86  73  65 E8        30.10S
RICHLANDS      MOSUNNY   88  72  58 NE10      30.08R
ROANOKE RAPIDS NOT AVBL
ROCKY MOUNT    CLOUDY    81  72  74 NE6       30.12S
WASHINGTON     MOSUNNY   80  70  72 NE9       30.12R
WHITEVILLE     SUNNY     90  69  51 E5        30.06S

$$

AMZ130-135-150-152-154-156-158-170-250-252-270-ANZ085-086-088-633-658-670-292200-
MARINE OBSERVATIONS

STATION/POSITION TIME  TEMP    WIND        PRES    WAVE   SWELL
                       AIR SEA DIR/SP/G            HT/PER HT/PER
                 (UTC) (F)     (DEG/KT/KT) (MB)    (FT/S) (FT/S)
CHESAPEAKE LIGHT 2100   73      80/ 12/ 13 1021.5
BUOY 44014       2100   76 76   60/ 10/ 12 1020.2    3/ 9   3/ 9
DUCK             2100   76 78   60/ 11/ 12 1020.0
2E DUCK          2100                        N/A     3/ 9
OREGON INLET     2100   77 79   50/ 10/ 14 1020.1
BUOY 44095       2100      77                N/A     4/ 9   2/14
20E OREGON INLET NOT AVBL
HATTERAS CG      2100   81 81   80/  8/ 12 1020.0
DIAMOND BUOY     2100   81     290/  2/  2 1019.4    3/ 9   3/ 9
CAPE LOOKOUT     2100   81     170/  5/  6 1019.1
BEAUFORT LAB     2100   83 81  180/  4/  6 1018.7
30 SE NEW RIVER  2100   82 84  190/  4/  6 1019.4    3/ 8   3/ 8
5 SE WRIGHTSVILL 2100   79 83  170/  8/ 10   N/A
BUOY 41002       2031   81 84   90/  6/  8 1020.0    4/ 8   3/ 8
BUOY 41004       2100   82 84   40/  8/ 10 1017.9    3/ 9   3/ 9

$$



USA.gov is the U.S. government's official web portal to all federal, state and local government web resources and services.